Weather History for Sidney-Richland, MT

Change the Weather History Date:

Thursday, April 24, 2014

  Actual Average Record
Temperature  
Mean Temperature 50 °F -  
Max Temperature 60 °F 66 °F 89 °F (2012)
Min Temperature 41 °F 35 °F 19 °F (1958)
Degree Days  
Heating Degree Days 14    
Moisture  
Dew Point 26 °F    
Average Humidity 41    
Maximum Humidity 53    
Minimum Humidity 23    
Precipitation  
Precipitation 0.00 in - - ()
Sea Level Pressure  
Sea Level Pressure 29.74 in    
Wind  
Wind Speed 12 mph (West)    
Max Wind Speed 20 mph    
Max Gust Speed 25 mph    
Visibility 10 miles    
Events      
Averages and records for this station are not official NWS values.
T = Trace of Precipitation, MM = Missing Value Source: NWS Daily Summary

Daily Weather History Graph

Daily Weather History Graph

Search for Another Location

Airport:

Trip Planner

Search our weather history database for the weather conditions in past years. The results will help you decide how hot, cold, wet, or windy it might be!

Date:

Astronomy

Apr. 24, 2014 Rise Set
Actual Time 5:51 AM MDT 7:59 PM MDT
Civil Twilight 5:17 AM MDT 8:33 PM MDT
Nautical Twilight 4:36 AM MDT 9:14 PM MDT
Astronomical Twilight 3:49 AM MDT 10:01 PM MDT
Moon 3:25 AM MDT (4/24) 2:57 PM MDT (4/24)
Length of Visible Light 15h 15m
Length of Day
14h 08m
Waning Crescent, 24% of the Moon is Illuminated
Apr 24
Waning Crescent
Apr 29
New
May 6
First Quarter
May 14
Full
May 21
Last Quarter

Hourly Weather History & Observations

Time (MDT) Temp. Windchill Dew Point Humidity Pressure Visibility Wind Dir Wind Speed Gust Speed Precip Events Conditions
12:15 AM 46.4 °F 40.7 °F 21.2 °F 37% 29.67 in 10.0 mi West 12.7 mph 17.3 mph N/A   Clear
12:35 AM 46.4 °F 40.7 °F 21.2 °F 37% 29.69 in 10.0 mi West 12.7 mph - N/A   Clear
12:55 AM 44.6 °F 38.1 °F 21.2 °F 39% 29.70 in 10.0 mi West 13.8 mph - N/A   Clear
1:15 AM 44.6 °F 39.2 °F 23.0 °F 43% 29.70 in 10.0 mi West 10.4 mph - N/A   Clear
1:35 AM 44.6 °F 38.1 °F 24.8 °F 46% 29.70 in 10.0 mi West 13.8 mph 18.4 mph N/A   Clear
1:55 AM 46.4 °F 40.4 °F 24.8 °F 43% 29.71 in 10.0 mi West 13.8 mph - N/A   Clear
2:15 AM 42.8 °F 35.8 °F 23.0 °F 46% 29.71 in 10.0 mi West 13.8 mph 19.6 mph N/A   Clear
2:35 AM 44.6 °F 37.4 °F 24.8 °F 46% 29.71 in 10.0 mi West 16.1 mph 19.6 mph N/A   Clear
2:55 AM 44.6 °F 38.8 °F 24.8 °F 46% 29.72 in 10.0 mi West 11.5 mph - N/A   Clear
3:15 AM 42.8 °F 36.6 °F 24.8 °F 49% 29.73 in 10.0 mi West 11.5 mph - N/A   Clear
3:35 AM 42.8 °F 35.4 °F 24.8 °F 49% 29.72 in 10.0 mi West 15.0 mph - N/A   Clear
4:15 AM 42.8 °F 36.6 °F 24.8 °F 49% 29.73 in 10.0 mi West 11.5 mph 17.3 mph N/A   Clear
4:35 AM 42.8 °F 36.2 °F 24.8 °F 49% 29.73 in 10.0 mi West 12.7 mph 17.3 mph N/A   Clear
4:55 AM 42.8 °F 35.4 °F 24.8 °F 49% 29.73 in 10.0 mi West 15.0 mph 21.9 mph N/A   Clear
5:15 AM 42.8 °F 36.2 °F 24.8 °F 49% 29.73 in 10.0 mi West 12.7 mph - N/A   Clear
5:35 AM 41.0 °F 33.5 °F 24.8 °F 53% 29.73 in 10.0 mi West 13.8 mph - N/A   Clear
5:55 AM 41.0 °F 33.9 °F 24.8 °F 53% 29.73 in 10.0 mi West 12.7 mph - N/A   Clear
6:15 AM 41.0 °F 34.3 °F 24.8 °F 53% 29.73 in 10.0 mi West 11.5 mph 18.4 mph N/A   Clear
6:35 AM 41.0 °F 33.5 °F 24.8 °F 53% 29.74 in 10.0 mi West 13.8 mph - N/A   Clear
6:55 AM 42.8 °F 35.4 °F 24.8 °F 49% 29.74 in 10.0 mi West 15.0 mph - N/A   Scattered Clouds
7:15 AM 42.8 °F 35.1 °F 24.8 °F 49% 29.75 in 10.0 mi West 16.1 mph - N/A   Partly Cloudy
7:35 AM 44.6 °F 37.2 °F 26.6 °F 49% 29.75 in 10.0 mi West 17.3 mph - N/A   Clear
7:55 AM 46.4 °F 39.0 °F 26.6 °F 46% 29.75 in 10.0 mi West 19.6 mph 25.3 mph N/A   Clear
8:15 AM 46.4 °F 39.2 °F 26.6 °F 46% 29.76 in 10.0 mi West 18.4 mph 24.2 mph N/A   Clear
8:35 AM 46.4 °F 40.1 °F 26.6 °F 46% 29.76 in 10.0 mi West 15.0 mph - N/A   Clear
8:55 AM 48.2 °F - 28.4 °F 46% 29.76 in 10.0 mi West 17.3 mph 20.7 mph N/A   Clear
9:15 AM 48.2 °F - 30.2 °F 50% 29.76 in 10.0 mi West 16.1 mph 19.6 mph N/A   Clear
9:35 AM 50.0 °F - 30.2 °F 47% 29.77 in 10.0 mi West 12.7 mph - N/A   Clear
9:55 AM 51.8 °F - 30.2 °F 44% 29.77 in 10.0 mi WNW 15.0 mph - N/A   Clear
10:15 AM 53.6 °F - 32.0 °F 44% 29.77 in 10.0 mi West 13.8 mph 19.6 mph N/A   Clear
10:35 AM 53.6 °F - 33.8 °F 47% 29.77 in 10.0 mi WNW 15.0 mph 20.7 mph N/A   Scattered Clouds
10:55 AM 53.6 °F - 32.0 °F 44% 29.78 in 10.0 mi WNW 11.5 mph - N/A   Mostly Cloudy
11:15 AM 55.4 °F - 32.0 °F 41% 29.80 in 10.0 mi NW 12.7 mph 19.6 mph N/A   Mostly Cloudy
11:35 AM 55.4 °F - 32.0 °F 41% 29.78 in 10.0 mi West 9.2 mph 16.1 mph N/A   Scattered Clouds
11:55 AM 53.6 °F - 30.2 °F 41% 29.78 in 10.0 mi WNW 16.1 mph 21.9 mph N/A   Mostly Cloudy
12:15 PM 55.4 °F - 30.2 °F 38% 29.78 in 10.0 mi West 13.8 mph 18.4 mph N/A   Mostly Cloudy
12:35 PM 55.4 °F - 30.2 °F 38% 29.77 in 10.0 mi West 17.3 mph - N/A   Scattered Clouds
12:55 PM 55.4 °F - 30.2 °F 38% 29.77 in 10.0 mi West 9.2 mph 19.6 mph N/A   Partly Cloudy
1:15 PM 53.6 °F - 28.4 °F 38% 29.76 in 10.0 mi West 11.5 mph 16.1 mph N/A   Partly Cloudy
1:35 PM 55.4 °F - 28.4 °F 36% 29.76 in 10.0 mi West 8.1 mph - N/A   Mostly Cloudy
1:55 PM 57.2 °F - 30.2 °F 36% 29.75 in 10.0 mi West 13.8 mph 19.6 mph N/A   Scattered Clouds
2:15 PM 57.2 °F - 28.4 °F 33% 29.75 in 10.0 mi WNW 8.1 mph - N/A   Scattered Clouds
2:35 PM 57.2 °F - 28.4 °F 33% 29.75 in 10.0 mi NW 9.2 mph - N/A   Partly Cloudy
2:55 PM 59.0 °F - 26.6 °F 29% 29.74 in 10.0 mi NW 10.4 mph - N/A   Partly Cloudy
3:15 PM 57.2 °F - 26.6 °F 31% 29.74 in 10.0 mi NNW 13.8 mph 21.9 mph N/A   Mostly Cloudy
3:35 PM 59.0 °F - 26.6 °F 29% 29.74 in 10.0 mi NNW 11.5 mph - N/A   Mostly Cloudy
3:55 PM 59.0 °F - 28.4 °F 31% 29.73 in 10.0 mi West 8.1 mph - N/A   Mostly Cloudy
4:15 PM 59.0 °F - 26.6 °F 29% 29.73 in 10.0 mi West 9.2 mph - N/A   Scattered Clouds
4:35 PM 60.8 °F - 26.6 °F 27% 29.73 in 10.0 mi NW 11.5 mph 16.1 mph N/A   Partly Cloudy
4:55 PM 59.0 °F - 24.8 °F 27% 29.73 in 10.0 mi WNW 8.1 mph 18.4 mph N/A   Scattered Clouds
5:15 PM 59.0 °F - 24.8 °F 27% 29.73 in 10.0 mi WNW 11.5 mph - N/A   Mostly Cloudy
5:35 PM 60.8 °F - 24.8 °F 25% 29.73 in 10.0 mi WNW 9.2 mph - N/A   Partly Cloudy
5:55 PM 59.0 °F - 21.2 °F 23% 29.73 in 10.0 mi WNW 9.2 mph - N/A   Scattered Clouds
6:15 PM 59.0 °F - 23.0 °F 25% 29.73 in 10.0 mi WNW 6.9 mph - N/A   Scattered Clouds
6:35 PM 59.0 °F - 23.0 °F 25% 29.73 in 6.0 mi WSW 8.1 mph - N/A   Partly Cloudy
6:55 PM 57.2 °F - 21.2 °F 25% 29.73 in 10.0 mi West 8.1 mph - N/A   Clear
7:15 PM 53.6 °F - 21.2 °F 28% 29.73 in 10.0 mi West 5.8 mph - N/A   Clear
7:35 PM 51.8 °F - 23.0 °F 33% 29.73 in 10.0 mi West 4.6 mph - N/A   Clear
7:55 PM 46.4 °F 43.5 °F 24.8 °F 43% 29.73 in 10.0 mi West 5.8 mph - N/A   Clear
8:15 PM 46.4 °F 43.5 °F 24.8 °F 43% 29.73 in 10.0 mi West 5.8 mph - N/A   Clear
8:35 PM 46.4 °F 44.3 °F 24.8 °F 43% 29.73 in 10.0 mi West 4.6 mph - N/A   Clear
8:55 PM 46.4 °F 44.3 °F 24.8 °F 43% 29.74 in 10.0 mi West 4.6 mph - N/A   Clear
9:15 PM 44.6 °F - 24.8 °F 46% 29.74 in 10.0 mi Calm Calm - N/A   Partly Cloudy
9:35 PM 44.6 °F - 23.0 °F 43% 29.74 in 10.0 mi Calm Calm - N/A   Partly Cloudy
9:55 PM 44.6 °F 41.4 °F 23.0 °F 43% 29.74 in 10.0 mi SSW 5.8 mph - N/A   Clear
10:15 PM 44.6 °F 39.2 °F 26.6 °F 49% 29.75 in 10.0 mi SW 10.4 mph - N/A   Partly Cloudy
10:35 PM 46.4 °F 43.5 °F 24.8 °F 43% 29.74 in 10.0 mi SSW 5.8 mph - N/A   Partly Cloudy
10:55 PM 46.4 °F 42.9 °F 24.8 °F 43% 29.74 in 10.0 mi SSW 6.9 mph - N/A   Partly Cloudy
11:15 PM 44.6 °F 41.4 °F 26.6 °F 49% 29.74 in 10.0 mi South 5.8 mph - N/A   Partly Cloudy
11:35 PM 44.6 °F 39.7 °F 26.6 °F 49% 29.73 in 10.0 mi WSW 9.2 mph - N/A   Clear
11:55 PM 50.0 °F - 28.4 °F 43% 29.73 in 10.0 mi West 11.5 mph - N/A   Clear